Location: São Paulo
(23.5507°S, 46.6334°W)
Time: 09:33:08
(UTC-03:00)

Transit 4A - Pass Details

Date: 21 February 2026
Orbit: 864 x 977 km, 66.8° (Epoch: 11 March)

Event Time Altitude Azimuth Distance (km) Brightness Sun altitude
Rises 14:06:27 0° 339° (NNW) 3,658 11.3 61.4°
Reaches altitude 10° 14:09:00 10° 339° (NNW) 2,713 10.8 60.9°
Maximum altitude 14:15:23 89° 67° (ENE) 975 9.3 59.5°
Drops below altitude 10° 14:21:43 10° 157° (SSE) 2,691 10.2 58.2°
Sets 14:24:14 0° 157° (SSE) 3,626 10.8 57.6°
